Location: Les Gen�tes
(46.3104°N, 1.5969°E)
Time: 08:48:54
(UTC+00:00)

Daily predictions for brighter satellites

Satellite Brightness Start Highest point End
(mag) Time Altitude Azimuth Time Altitude Azimuth Time Altitude Azimuth
STARLINK-1079 3.7 20:09:43 10° WNW 20:13:52 77° SW 20:18:00 10° SE
Meteor 2-9 Rocket 4.5 20:10:50 10° NNW 20:16:10 67° W 20:21:25 10° S
STARLINK-1243 3.7 20:12:27 10° WSW 20:16:35 89° NNW 20:20:45 10° ENE
Cosmos 2221 Rocket 3.7 20:12:30 10° S 20:16:57 65° E 20:21:29 10° NNE
SL-4 R/B 1.8 20:14:06 10° NW 20:17:05 52° WSW 20:19:52 10° SSE
STARLINK-1116 3.7 20:14:43 10° WNW 20:18:52 72° SSW 20:22:59 10° SE
NOSS 8 (F) 4.5 20:16:45 10° SSW 20:19:56 44° SE 20:22:50 10° NE
Meteor 1-13 Rocket 4.4 20:15:08 10° S 20:20:35 54° E 20:26:11 10° NNE
STARLINK-1236 3.7 20:17:24 10° WSW 20:21:33 84° NNW 20:25:43 10° ENE
ERS-1 Rocket 4.3 20:20:18 10° ESE 20:24:27 27° ENE 20:28:37 10° N
STARLINK-1101 4.4 20:21:57 10° NW 20:26:00 48° NNE 20:30:00 10° E
STARLINK-1094 3.9 20:24:41 10° WNW 20:28:47 62° SW 20:32:47 11° SE
Sich 1 Rocket 4.3 20:24:55 10° NNW 20:29:26 58° W 20:33:54 10° S
USA 245 3.4 20:27:55 10° SE 20:30:36 31° ENE 20:32:55 10° N
STARLINK-1102 4.3 20:26:57 10° NW 20:31:00 50° NNE 20:35:02 10° E
STARLINK-1269 3.9 20:27:23 10° WSW 20:31:32 74° NNW 20:35:41 10° ENE
Cosmos 2278 Rocket 2.8 20:27:07 10° SW 20:32:43 63° WNW 20:38:24 10° NNE
STARLINK-1117 3.9 20:29:40 10° WNW 20:33:45 57° SW 20:37:34 11° SE
Resurs 01 Rocket 1.9 20:29:38 10° S 20:34:05 73° WSW 20:38:33 10° NNW
Okean 1 Rocket 4.0 20:30:04 10° N 20:34:08 33° ENE 20:37:54 11° SE
GPS 2-04 Rocket1 4.3 20:32:03 10° SW 20:34:08 15° S 20:35:57 11° SSE
Cosmos 1741 Rocket 4.1 20:29:24 10° NNW 20:34:38 72° ENE 20:39:48 10° SSE
Okean 2 Rocket 3.2 20:30:32 10° N 20:34:58 80° W 20:39:21 10° S
STARLINK-1111 4.3 20:31:55 10° NW 20:35:59 53° NNE 20:40:02 10° E
STARLINK-1200 4.0 20:32:22 10° WSW 20:36:30 70° NNW 20:40:39 10° ENE
MetOp-B 4.2 20:32:39 10° SSE 20:37:58 76° ENE 20:43:21 10° NNW
Meteor 1-12 Rocket 4.4 20:32:35 10° NNW 20:38:16 83° W 20:43:59 10° S
STARLINK-1078 4.0 20:34:40 10° WNW 20:38:43 52° SW 20:42:21 12° SE
SL-8 R/B 3.8 20:36:05 10° WNW 20:40:54 81° NNE 20:45:44 10° ESE
STARLINK-1073 4.2 20:36:54 10° NW 20:40:59 56° NNE 20:45:04 10° ESE
STARLINK-1192 4.1 20:37:23 10° WSW 20:41:30 65° NNW 20:45:38 10° ENE
Cosmos 2279 Rocket 4.0 20:36:44 10° N 20:43:00 90° ENE 20:49:13 10° S
STARLINK-1108 4.1 20:39:40 10° WNW 20:43:41 48° SW 20:47:08 13° SSE
Cosmos 1850 Rocket 4.1 20:38:50 10° NNW 20:44:13 88° ENE 20:49:25 11° SSE
Cosmos 371 Rocket 3.5 20:39:53 10° SSW 20:44:44 77° WNW 20:49:39 10° NNE
ATLAS 3B CENTAUR R/B 4.3 20:33:30 10° SW 20:45:05 26° S 20:50:57 12° SE
STARLINK-1121 4.1 20:41:53 10° WNW 20:45:59 59° NNE 20:50:04 10° ESE
SL-4 R/B 3.8 20:43:06 10° S 20:46:06 17° SE 20:49:09 10° E
STARLINK-1244 4.2 20:42:22 10° WSW 20:46:29 62° NNW 20:50:36 10° ENE
Cosmos 1110 Rocket 4.4 20:42:05 10° S 20:46:57 43° ESE 20:51:49 10° NE
Terra 3.2 20:44:22 11° ESE 20:48:05 26° ENE 20:52:00 10° N
STARLINK-1071 4.3 20:44:41 10° WNW 20:48:38 44° SW 20:51:55 14° SSE
Spot 2 Rocket 3.5 20:44:05 10° SSE 20:49:07 78° ENE 20:54:10 10° NNW
Abrixas rocket 1.8 20:46:32 10° WNW 20:49:29 81° SSW 20:51:50 15° ESE
Cosmos 2151 Rocket 3.7 20:45:10 10° N 20:49:43 81° W 20:54:14 10° S
SPOT 1/Viking Rocket 3.8 20:45:17 12° SSE 20:50:01 58° ENE 20:55:05 10° N
STARLINK-1106 4.0 20:46:52 10° WNW 20:51:00 62° NNE 20:54:56 11° ESE
NOSS 8 (H) 4.2 20:47:56 10° SSW 20:51:05 55° SE 20:54:04 10° NE
CARTOSAT-1 4.4 20:47:49 13° SE 20:51:12 36° ENE 20:55:10 10° N
STARLINK-1138 4.3 20:47:23 10° WSW 20:51:29 58° NNW 20:55:35 10° ENE
STARLINK-1110 4.4 20:48:29 10° WNW 20:52:24 42° SW 20:55:32 15° SSE
STARLINK-1112 3.9 20:51:49 10° WNW 20:55:58 66° NNE 20:59:41 12° ESE
STARLINK-1143 4.4 20:52:22 10° WSW 20:56:27 55° NNW 21:00:33 10° NE
Aureole 2 4.2 20:55:36 10° NNW 20:58:43 62° ENE 21:00:36 20° SE
STARLINK-1128 3.8 20:56:48 10° WNW 21:00:56 70° NNE 21:04:28 14° ESE
Cosmos 1331 Rocket 4.1 20:58:42 10° S 21:03:42 54° ESE 21:08:45 10° NNE
deb Kosmos-1763 3.9 21:00:50 10° NNW 21:04:27 85° ENE 21:06:57 19° SSE
Aureole 2 Rocket 2.0 21:01:24 10° SSW 21:04:31 89° WSW 21:07:31 10° NNE
STARLINK-1113 3.7 21:01:47 10° WNW 21:05:56 74° NNE 21:09:16 15° ESE
Cosmos 1733 4.4 21:04:12 10° NNE 21:07:31 28° ENE 21:09:32 18° ESE
Cosmos 1437 Rocket 3.1 21:05:45 10° SSW 21:09:30 64° WNW 21:13:19 10° N
STARLINK-1119 3.7 21:06:47 10° WNW 21:10:56 79° NNE 21:14:04 17° ESE
Cosmos 1378 3.5 21:09:41 19° SSE 21:12:04 45° E 21:15:38 10° NNE
ISS -1.8 21:13:07 10° W 21:15:31 18° SW 21:17:02 14° S
STARLINK-1114 3.6 21:11:44 10° WNW 21:15:54 84° NNE 21:18:49 19° ESE
Cosmos 304 Rocket 3.9 21:11:21 10° SSW 21:16:08 81° WNW 21:20:57 10° NNE
Meteor 1-15 Rocket 4.4 21:10:50 10° NNW 21:16:48 82° W 21:21:57 14° S
Lacrosse 5 3.3 21:14:25 10° WNW 21:18:35 26° SW 21:22:07 13° S
Cosmos 1092 Rocket 4.2 21:15:30 16° SSE 21:20:18 52° E 21:26:14 10° NNE
NOSS 2-2 (D) 3.0 21:17:20 10° SSW 21:20:52 71° SE 21:24:48 10° NE
STARLINK-1130 (DARKSAT) 3.6 21:16:44 10° WNW 21:20:54 90° ENE 21:23:37 21° ESE
CENTAUR R/B 3.7 21:15:34 10° NW 21:23:13 51° NE 21:31:08 12° ESE
Cosmos 1674 Rocket 4.2 21:20:22 10° SSW 21:24:40 57° WNW 21:29:02 10° N
STARLINK-1084 3.5 21:21:43 10° WNW 21:25:52 85° SSW 21:28:23 23° SE
ATLAS 3B R/B 4.2 21:20:17 10° NNW 21:26:06 30° NNE 21:32:03 10° E
Cosmos 1378 Rocket 3.8 21:23:08 10° SSW 21:27:32 69° W 21:31:54 10° N
SL-27 R/B 3.6 21:24:35 10° N 21:27:52 32° ENE 21:29:28 22° ESE
NOSS 3-2 (C) 4.5 21:21:17 10° NW 21:28:34 57° NE 21:35:36 15° ESE
Cosmos 1766 3.3 21:26:40 10° N 21:30:39 68° E 21:32:47 26° SSE
STARLINK-1098 3.5 21:26:42 10° WNW 21:30:51 79° SSW 21:33:10 25° SE
IGS 5A 4.5 21:31:57 13° SSW 21:35:18 41° W 21:39:15 10° NNW
STARLINK-1123 3.6 21:31:40 10° WNW 21:35:48 74° SW 21:37:56 27° SE
Cosmos 1943 Rocket 2.2 21:31:46 11° S 21:36:56 61° ESE 21:42:28 10° NNE
Cosmos 2297 4.1 21:31:28 10° SW 21:37:06 66° WNW 21:42:50 10° NNE
Cosmos 1900 4.4 21:32:57 10° NW 21:38:01 88° WSW 21:41:01 25° SSE
NOSS 2-2 (E) 3.7 21:34:38 10° SW 21:38:11 62° NW 21:42:16 10° NE
NOSS 3-4 (A) 4.4 21:36:32 22° SE 21:38:27 26° ESE 21:43:26 10° ENE
NOSS 3-4 (C) 4.4 21:36:40 22° SE 21:38:34 26° ESE 21:43:32 10° ENE
STARLINK-1097 3.6 21:36:41 10° WNW 21:40:48 69° SW 21:42:45 29° SE
Cosmos 2082 Rocket 3.9 21:38:23 10° NW 21:42:59 25° WSW 21:47:33 10° SSW
SeaSat 1 3.8 21:40:25 10° ENE 21:43:59 20° ESE 21:44:35 19° ESE
STARLINK-1099 3.7 21:41:39 10° WNW 21:45:46 63° SW 21:47:32 32° SE
Cosmos 1975 Rocket 3.1 21:44:36 26° S 21:47:02 67° E 21:51:25 10° NNE
BREEZE-M DEB (TANK) 3.9 21:32:20 10° WSW 21:50:13 86° SSE 21:54:28 10° ENE
Cosmos 292 Rocket 4.2 21:48:20 28° SSE 21:50:24 43° ESE 21:55:01 10° NE
STARLINK-1104 3.7 21:46:38 10° WNW 21:50:43 58° SW 21:52:18 34° SSE
BREEZE-M DEB (TANK) 3.6 21:47:07 10° W 21:51:24 55° N 21:54:57 10° E
Cosmos 2369 Rocket 2.2 21:49:04 19° S 21:53:07 60° ESE 21:58:40 10° NNE
STARLINK-1229 4.5 21:51:47 10° NW 21:54:40 32° NNE 21:56:54 14° ENE
STARLINK-1270 4.5 21:52:41 10° NW 21:55:34 33° NNE 21:57:46 15° ENE
STARLINK-1144 3.8 21:51:38 10° WNW 21:55:41 54° SW 21:57:05 35° SSE
SPOT 5 3.5 21:53:31 21° S 21:56:58 60° W 22:02:17 10° NNW
STARLINK-1189 4.4 21:54:29 10° NW 21:57:22 33° NNE 21:59:29 15° ENE
STARLINK-1188 4.4 21:55:24 10° NW 21:58:18 33° NNE 22:00:21 16° ENE
ATLAS CENTAUR R/B 3.0 21:59:35 20° ESE 21:59:35 20° ESE 22:02:09 10° ENE
STARLINK-1187 4.3 21:56:30 10° NW 21:59:24 36° NNE 22:01:14 18° ENE
STARLINK-1103 3.9 21:56:38 10° WNW 22:00:38 50° SW 22:01:51 36° S
STARLINK-1191 4.4 21:57:50 10° NW 22:00:43 34° NNE 22:02:40 17° ENE
STARLINK-1221 4.4 21:58:47 10° NW 22:01:41 34° NNE 22:03:34 17° ENE
STARLINK-1222 4.3 21:59:38 10° NW 22:02:32 35° NNE 22:04:23 18° ENE
NOSS 2-2 (C) 4.3 21:59:25 10° WSW 22:02:52 45° NW 22:06:48 10° NNE
ERS-1 Rocket 3.8 21:59:40 19° SSW 22:03:01 44° W 22:07:51 10° NNW
STARLINK-1214 4.3 22:00:32 10° NW 22:03:26 35° NNE 22:05:15 18° ENE
Cosmos 1025 Rocket 3.9 22:02:58 29° ESE 22:04:00 33° E 22:07:52 10° NNE
EXPRESS MD2 4.1 22:00:40 10° W 22:04:17 71° NNW 22:11:42 10° ENE
Okean 2 3.6 22:02:01 24° SSW 22:04:23 71° W 22:08:34 10° N
Cosmos 2026 Rocket 4.0 22:00:23 22° S 22:04:42 82° E 22:11:05 10° N
Thor Agena Rocket 4.2 22:00:20 10° NNE 22:05:18 40° E 22:07:12 30° SE
STARLINK-1101 4.1 22:01:37 10° WNW 22:05:36 46° SW 22:06:38 37° S
Meteor 1-22 Rocket 4.5 21:59:47 10° NNW 22:05:39 69° W 22:09:05 24° S
ATLAS 2AS CENTAUR R/B 3.3 22:00:30 18° S 22:06:19 50° ESE 22:13:55 10° NE
BREEZE M DEB (TANK) 2.6 22:02:54 10° W 22:06:51 59° NNW 22:08:32 15° ENE
Cosmos 1656 Rocket 4.2 22:04:50 29° SSE 22:06:51 39° ESE 22:12:00 10° NE
Cosmos 1553 Rocket 4.2 22:02:15 10° N 22:08:30 60° ENE 22:11:43 29° SSE
BREEZE-M DEB (TANK) 4.3 21:53:19 10° WNW 22:08:52 88° NNE 22:11:56 21° ESE
STARLINK-1228 3.9 22:05:55 10° NW 22:09:21 49° NNE 22:11:08 24° E
Cosmos 1953 3.7 22:06:13 10° NNE 22:09:37 26° ENE 22:10:41 23° E
NOSS 3-2 (A) 4.1 22:02:30 10° NW 22:10:02 72° SW 22:15:11 26° SSE
STARLINK-1102 4.2 22:06:38 10° WNW 22:10:34 42° SW 22:11:26 37° S
Cosmos 1470 2.9 22:07:00 10° N 22:10:50 58° ENE 22:11:51 42° SE
APEX 4.3 22:06:47 21° S 22:11:14 63° ESE 22:16:36 10° NE
STARLINK-1235 3.9 22:08:40 10° NW 22:11:49 46° NNE 22:13:11 27° E
Cosmos 968 Rocket 3.5 22:10:06 10° NNW 22:15:17 72° ENE 22:17:31 34° SE
STARLINK-1111 4.2 22:11:38 10° WNW 22:15:30 39° SW 22:16:12 36° SSW
Cosmos 1455 Rocket 3.1 22:13:25 10° NNW 22:17:45 72° W 22:19:25 36° S
Cosmos 1655 Rocket 4.4 22:15:01 29° SE 22:17:50 47° E 22:23:48 10° NNE
STARLINK-1073 4.3 22:16:39 10° WNW 22:20:28 36° SW 22:20:59 34° SSW
ATLAS 5 CENTAUR R/B 2.3 22:15:19 10° SSW 22:21:46 38° ESE 22:23:46 10° ENE
USA 238 DEB 4.0 22:14:44 10° NW 22:21:51 61° WSW 22:25:51 28° S
USA 238 4.0 22:14:50 10° NW 22:21:57 62° WSW 22:25:58 28° SSE
SL-8 R/B 4.2 22:18:46 10° WNW 22:23:16 41° SSW 22:24:13 36° S
Cosmos 1758 3.3 22:20:17 10° N 22:24:22 73° E 22:25:25 47° SSE
Abrixas rocket 4.4 22:22:37 10° W 22:23:18 13° WSW 22:23:18 13° WSW
SL-4 R/B 2.3 22:20:26 10° SW 22:25:11 69° SSE 22:30:01 10° ENE
STARLINK-1121 4.5 22:21:41 10° WNW 22:25:25 33° SW 22:25:46 32° SSW
Terra 2.7 22:23:15 24° SSW 22:25:38 41° W 22:30:09 10° NNW
Cosmos 1842 3.9 22:24:08 27° SW 22:25:57 51° WNW 22:29:45 10° N
STARLINK-1234 3.3 22:26:23 10° NW 22:29:38 62° NNE 22:30:16 49° E
Cosmos 1503 Rocket 4.0 22:30:06 10° NNW 22:35:26 78° ENE 22:37:35 37° SSE
STARLINK-1209 3.1 22:32:33 10° WNW 22:35:51 72° NNE 22:36:13 63° E
Cosmos 2266 Rocket 4.4 22:33:43 31° SE 22:36:07 47° E 22:41:52 10° NNE
Meteor 2-8 Rocket 4.4 22:35:10 10° N 22:41:21 79° E 22:44:07 35° SSE
Cosmos 2263 4.2 22:39:18 22° SSW 22:42:59 80° WNW 22:48:39 10° NNE
Cosmos 1536 Rocket 3.4 22:45:44 50° S 22:46:51 84° E 22:51:14 10° N
Cosmos 1674 4.0 22:48:19 27° E 22:48:19 27° E 22:51:33 10° NNE
Cosmos 1271 Rocket 3.1 22:49:29 42° SW 22:50:31 60° WNW 22:54:25 10° N
Cosmos 1242 Rocket 3.7 22:49:25 28° WSW 22:50:41 38° WNW 22:54:10 10° N
STARLINK-60 3.5 22:52:21 25° W 22:53:57 58° NNW 22:57:06 10° NE
Cosmos 1544 Rocket 4.4 22:50:23 10° NNW 22:54:27 40° W 22:55:47 31° SW
Cosmos 1354 Rocket 4.0 22:49:26 10° NNW 22:54:46 83° WSW 22:56:35 43° SSE
Spot 4 3.8 22:53:29 45° S 22:55:00 82° WSW 22:59:54 10° NNW
COSMOS 2455 2.9 22:52:50 36° S 22:55:10 61° ESE 23:01:06 10° NE
Cosmos 1833 4.3 22:53:37 10° NNW 22:59:13 66° WSW 23:01:10 40° S
USA 215 3.6 22:52:56 10° ESE 22:59:19 66° NNE 23:05:48 10° NW
Cosmos 1707 3.1 22:59:44 45° SW 23:00:36 58° WNW 23:04:26 10° N
Cosmos 2297 Rocket 4.2 22:57:19 10° N 23:01:37 22° NE 23:05:55 10° E
SL-27 R/B 4.5 23:00:14 10° NW 23:02:44 18° W 23:03:01 18° WSW
Helios 1A 4.1 23:01:35 28° E 23:02:46 33° ENE 23:06:33 10° N
STARLINK-1218 4.5 23:00:54 10° NW 23:04:56 48° NNE 23:07:55 17° E
Cosmos 1174 3.4 23:06:36 68° ENE 23:06:36 68° ENE 23:09:59 10° NE
Cosmos 1726 2.0 23:03:21 10° NNW 23:07:05 79° W 23:07:20 73° SW
ALOS 2 2.6 23:07:47 51° SE 23:08:47 70° ENE 23:13:10 10° N
Timation 2 Rocket 4.5 23:03:15 10° NNW 23:09:28 53° NE 23:12:54 25° ESE
STARLINK-1254 4.4 23:05:52 10° NW 23:09:55 51° NNE 23:12:41 19° E
COSMOS 2487 2.3 23:07:10 10° NNW 23:10:32 81° WNW 23:10:32 81° WNW
CENTAUR R/B 3.4 23:06:21 10° NW 23:14:15 56° WSW 23:18:17 32° S
STARLINK-1231 4.3 23:10:50 10° NW 23:14:54 53° NNE 23:17:27 21° E
Meteor 2-5 Rocket 4.3 23:14:12 35° SE 23:15:47 43° E 23:21:04 10° NNE
Meteor 1-16 Rocket 4.1 23:10:33 10° NNW 23:16:04 82° W 23:17:49 45° S
Cosmos 1867 3.7 23:11:59 10° NW 23:17:21 58° WSW 23:18:45 44° S
ATLAS 3B R/B 2.6 23:10:47 10° NW 23:17:37 89° SW 23:21:09 32° SE
EO 1 Del DPAF 4.3 23:14:54 10° N 23:18:26 38° WNW 23:19:30 31° WSW
FALCON 9 DEB 4.1 23:20:07 38° ENE 23:20:07 38° ENE 23:22:24 10° ENE
STARLINK-1232 4.2 23:15:50 10° NW 23:19:55 56° NNE 23:22:14 24° E
Cosmos 1606 Rocket 3.7 23:16:32 10° N 23:20:50 63° ENE 23:21:36 52° SE
Cosmos 1943 Rocket 4.1 23:16:31 10° WSW 23:21:07 26° NW 23:25:45 10° N
SeaSat 1 2.7 23:16:59 10° NNE 23:21:53 65° WNW 23:24:20 29° SW
Cosmos 2098 Rocket 4.4 23:20:07 36° S 23:23:22 75° E 23:30:51 10° NNE
STARLINK-29 3.4 23:24:02 61° N 23:24:02 61° N 23:27:01 10° NE
STARLINK-1212 4.5 23:21:13 10° WNW 23:22:54 28° WNW 23:22:54 28° WNW
STARLINK-1208 4.1 23:20:47 10° WNW 23:24:53 60° NNE 23:27:00 27° E
NOSS 5 (C) 4.4 23:22:17 10° NW 23:25:31 87° NE 23:25:32 86° ENE
ATLAS CENTAUR R/B 3.5 23:25:57 10° NNW 23:27:37 18° NE 23:30:04 10° E
NOSS 3-4 (A) 3.7 23:23:52 16° SW 23:28:46 65° NW 23:35:09 10° NE
NOSS 3-4 (C) 3.7 23:24:01 16° SW 23:28:51 66° NW 23:35:15 10° NE
RESURS DK-1 2.4 23:29:48 58° ESE 23:29:52 58° ESE 23:33:57 10° NE
STARLINK-1271 4.0 23:25:47 10° WNW 23:29:54 63° NNE 23:31:49 30° E
Cosmos 2084 3.6 23:33:36 55° SE 23:33:45 56° SE 23:38:09 10° NE
Cosmos 2315 Rocket 3.9 23:28:22 10° N 23:34:36 84° W 23:36:59 41° S
STARLINK-1154 3.9 23:30:46 10° WNW 23:34:54 67° NNE 23:36:35 34° E
BREEZE-M R/B 3.9 23:31:45 29° SSW 23:34:58 49° SSE 23:39:04 10° ENE
Cosmos 1626 3.1 23:36:00 35° E 23:36:00 35° E 23:39:21 10° NNE
Cosmos 2369 Rocket 4.1 23:32:48 10° WSW 23:37:33 27° NW 23:42:17 10° N
ATLAS CENTAUR R/B 2.1 23:35:43 29° WSW 23:37:37 51° NW 23:41:38 10° NNE
Cosmos 1340 Rocket 3.6 23:33:55 10° NNW 23:37:43 38° W 23:38:06 37° WSW
Okean 1-7 Rocket 4.1 23:37:39 43° ESE 23:38:20 47° E 23:42:41 10° NNE
Cosmos 2227 Rocket 3.7 23:33:48 10° NNW 23:38:53 32° NE 23:43:30 12° ESE
STARLINK-1197 3.8 23:35:43 10° WNW 23:39:51 71° NNE 23:41:20 38° ESE
Nadezhda 2 Rocket 4.5 23:39:44 40° SSE 23:41:56 69° E 23:48:02 10° NNE
Cosmos 1908 3.2 23:38:34 10° NNW 23:42:22 67° W 23:42:29 66° WSW
STARLINK-1198 3.7 23:40:41 10° WNW 23:44:50 76° NNE 23:46:08 43° ESE
Aureole 3 4.0 23:42:07 10° NNW 23:44:31 32° WNW 23:44:31 32° WNW
Cosmos 1953 3.8 23:42:37 10° NNW 23:45:56 26° W 23:46:22 25° W
STARLINK-1199 3.6 23:45:41 10° WNW 23:49:51 80° NNE 23:50:55 48° ESE
Landsat 4 3.6 23:47:16 10° NNE 23:50:58 73° ESE 23:50:59 73° ESE
KORONAS-FOTON 4.1 23:52:25 52° W 23:52:45 54° WNW 23:56:33 10° N
STARLINK-1210 3.5 23:50:39 10° WNW 23:54:49 86° NNE 23:55:41 55° ESE
